Regional Weather Roundup
Issued by NWS Raleigh/Durham, NC

Home | Current Version | Previous Version | Text Only | Print | Product List | Glossary On
Versions: 1 2 3 4 5 6 7 8 9 10 11 12 13 14 15 16 17 18 19 20 21 22 23 24 25 26 27
000
ASUS42 KRAH 270110
RWRRAH
NORTH CAROLINA WEATHER ROUNDUP
NATIONAL WEATHER SERVICE RALEIGH NC
900 PM EDT TUE JUL 26 2016

NOTE: "FAIR" INDICATES FEW OR NO CLOUDS BELOW 12,000 FEET WITH NO
SIGNIFICANT WEATHER AND/OR OBSTRUCTIONS TO VISIBILITY.

NCZ001-053-055-056-065-067-270200-
WESTERN NORTH CAROLINA

CITY           SKY/WX    TMP DP  RH WIND       PRES   REMARKS
ASHEVILLE      CLOUDY    79  70  74 NW6       30.09R
JEFFERSON      CLOUDY    75  66  73 CALM      30.14S
MORGANTON      MOCLDY    79  72  78 CALM      30.05S
HICKORY        MOCLDY    79  72  79 N3        30.00R
RUTHERFORDTON    N/A     76  76 100 CALM      30.01S
MOUNT AIRY     CLOUDY    83  76  81 CALM      30.02S
BOONE          CLOUDY    76  67  73 CALM      30.15S
$$

NCZ021-022-025-041-071-084-088-270200-
CENTRAL NORTH CAROLINA

CITY           SKY/WX    TMP DP  RH WIND       PRES   REMARKS
CHARLOTTE      MOCLDY    86  71  60 NW6       29.98R
GREENSBORO     CLOUDY    84  74  71 NW5       29.97S
WINSTON-SALEM  CLOUDY    85  73  67 CALM      30.00R
RALEIGH-DURHAM TSTM      80  76  87 SW9       29.96R
FORT BRAGG     CLEAR     90  71  53 SW7       29.94S HX  97
FAYETTEVILLE   CLEAR     88  72  58 S6        29.94S
BURLINGTON     CLOUDY    84  71  65 CALM      29.96R
LAURINBURG     CLEAR     87  73  62 S6        29.95S
$$

NCZ011-015-027-028-043-044-047-080-103-270200-
NORTHEASTERN NORTH CAROLINA

CITY           SKY/WX    TMP DP  RH WIND       PRES   REMARKS
ROCKY MT-WILSO CLOUDY    84  77  79 E5        29.94S
GREENVILLE     PTCLDY    88  77  70 SW7       29.95S HX 100
WASHINGTON     PTCLDY    87  78  74 S6        29.93F HX  99
ELIZABETH CITY CLOUDY    78  74  87 E3        29.93F
MANTEO           N/A     82  76  84 W8        29.95F
CAPE HATTERAS  CLOUDY    83  76  79 SW13      29.96F
$$

NCZ078-087-090-091-093-098-101-270200-
SOUTHEASTERN NORTH CAROLINA

CITY           SKY/WX    TMP DP  RH WIND       PRES   REMARKS
LUMBERTON      CLEAR     85  76  74 S3        29.95R
GOLDSBORO      CLEAR     89  75  64 S6        29.93S HX  99
KINSTON        CLEAR     88  75  66 S9        29.95F HX  97
KENANSVILLE    NOT AVBL
NEW BERN       PTCLDY    83  75  77 S7        29.97S
CHERRY POINT   CLEAR     83  74  74 S8        29.97F
BEAUFORT       CLEAR     83  78  85 SW10      29.98S
JACKSONVILLE   CLEAR     82  74  76 S7        29.96F
WILMINGTON     CLEAR     83  75  77 S7        29.98S
$$





USA.gov is the U.S. government's official web portal to all federal, state and local government web resources and services.